GFSSGP_sfc_dewp_000.txt.gz
Dewpoint
66 64 55 54 42 30 28 23 24 23 23 25 22 21 21 23 26 19 36 48 53 53 61 68 72 69 67 67 66 65 63 62 61 60 59 58 59 61 62 63 64 64 64 63 63 64 64 64 66
59 55 52 45 37 19 22 20 22 23 24 25 26 27 26 27 38 41 40 46 51 55 61 66 71 71 68 67 67 67 63 63 62 61 60 59 60 61 62 62 63 63 64 64 63 63 64 64 66
53 55 49 43 35 31 21 18 22 22 23 24 22 31 33 35 42 41 42 44 47 55 61 65 71 71 68 67 67 66 63 63 63 62 60 59 60 61 62 62 62 63 63 63 63 63 63 64 65
53 51 42 39 36 31 21 17 23 21 20 20 25 30 38 40 41 39 41 44 45 51 61 64 69 70 68 66 66 66 64 63 63 62 61 60 60 61 61 61 61 62 63 63 64 63 63 64 65
47 43 38 36 33 18 17 18 22 19 20 19 29 32 36 39 42 40 38 39 37 51 61 64 68 68 68 66 66 66 65 65 63 61 60 61 61 61 61 61 61 61 62 63 62 64 66 67 68
41 41 37 35 35 22 19 19 21 20 19 29 32 33 34 39 39 37 46 45 48 57 59 61 65 68 68 66 65 64 64 64 63 62 62 61 62 61 61 62 61 60 61 63 61 64 66 68 69
40 39 37 37 35 19 19 21 20 21 20 23 32 30 33 36 36 37 35 37 41 46 48 51 48 54 58 59 60 61 62 62 62 62 62 61 62 61 62 62 61 61 61 62 63 64 65 67 68
42 40 34 26 22 17 20 21 21 23 22 31 33 29 28 33 35 35 37 39 38 39 41 42 50 53 54 55 59 59 61 61 61 62 62 61 61 62 62 62 61 61 61 62 63 64 65 66 68
37 34 33 32 20 18 21 17 24 27 27 31 32 33 33 35 35 36 39 40 43 45 48 49 53 54 54 55 55 58 60 61 61 60 60 59 59 59 60 61 61 61 61 63 63 64 65 66 67
34 33 32 30 20 19 19 17 21 27 31 30 31 33 35 35 36 37 40 43 44 46 49 52 52 54 54 55 55 55 57 58 58 59 58 59 57 58 59 61 61 61 61 63 63 64 66 66 66
32 32 32 26 19 19 19 18 23 28 28 28 27 31 34 37 39 39 42 43 46 48 50 50 51 53 54 54 55 55 56 58 59 58 57 60 60 59 59 60 60 61 62 63 64 65 65 65 66
28 30 29 27 26 19 18 21 27 27 26 31 30 34 35 38 39 40 43 45 48 48 50 50 52 53 54 55 55 55 57 59 59 57 58 58 59 58 57 58 59 60 61 61 62 63 64 65 65
28 26 25 22 19 19 20 21 25 27 32 34 31 34 37 38 39 42 45 49 49 49 50 50 53 54 54 55 55 55 57 58 58 57 57 57 57 57 57 58 59 59 60 61 62 63 64 64 65
27 23 22 20 21 22 19 23 26 27 34 32 31 34 37 39 41 43 47 49 49 50 50 51 53 54 54 54 55 55 56 56 57 56 56 57 56 56 57 58 58 59 60 61 61 63 63 64 65
24 23 21 21 19 19 20 19 23 29 31 30 31 34 37 39 41 44 48 49 50 50 51 50 54 55 55 54 55 56 56 56 56 56 57 57 57 57 58 58 58 59 60 61 61 62 64 64 64
22 21 18 20 20 20 17 17 21 29 30 31 31 33 36 39 41 45 50 49 51 50 51 50 53 55 55 55 55 56 57 57 57 57 57 58 58 59 58 58 58 59 61 61 62 63 63 63 64
23 21 20 20 20 21 18 17 25 32 30 31 31 35 37 38 42 47 50 50 51 50 52 50 52 54 55 55 56 57 57 58 58 59 59 59 61 61 59 59 61 61 61 62 62 62 62 62 64
21 21 21 21 21 20 18 18 21 31 30 32 32 35 37 40 42 46 50 50 51 51 50 51 50 53 54 55 56 57 57 58 58 59 59 60 61 60 61 60 61 62 61 62 62 62 63 63 63
24 24 23 26 23 20 20 20 21 29 30 30 32 35 37 39 42 46 49 51 52 52 50 50 49 50 52 54 54 55 56 57 57 59 60 60 61 61 62 62 61 63 61 62 62 62 62 62 63
24 23 23 24 26 21 22 22 25 29 30 30 32 34 37 39 42 46 48 50 49 50 52 51 50 51 52 54 55 55 56 58 59 59 60 61 61 62 62 62 62 62 62 62 62 61 61 62 63
24 23 23 23 26 23 22 20 22 26 32 34 33 34 38 39 41 44 46 46 49 47 48 52 51 49 49 53 56 56 58 59 59 59 59 61 62 62 62 62 62 62 62 61 62 62 62 61 62
24 26 26 26 24 19 21 19 21 25 29 35 31 33 36 38 41 43 44 43 49 48 50 51 51 50 51 52 56 56 56 57 58 60 60 61 61 62 62 62 62 61 62 61 61 62 62 61 59
25 28 25 26 23 20 22 20 21 32 29 30 34 32 35 37 41 43 43 43 47 50 51 52 52 52 52 53 56 57 57 58 58 59 59 60 61 62 62 62 62 62 62 62 62 61 61 62 60
28 24 25 27 23 18 18 20 19 23 28 30 35 32 35 37 41 43 43 43 45 49 52 52 53 53 52 54 55 55 54 53 55 56 58 59 61 61 62 62 62 62 62 62 61 62 61 61 61
22 20 19 19 19 20 24 21 22 25 27 31 35 33 34 36 39 43 43 42 44 47 51 52 53 52 52 53 54 55 52 53 54 55 58 59 60 61 61 61 62 61 62 62 62 61 61 61 61
20 20 18 14 14 13 26 22 23 30 35 38 37 35 35 36 39 43 43 43 44 46 51 53 52 51 51 52 53 53 52 52 51 53 57 58 60 60 61 61 62 62 62 62 62 62 61 61 60
22 18 19 16 23 20 22 27 34 38 39 39 36 35 35 37 39 43 43 43 44 45 48 53 53 50 50 51 52 52 52 51 51 51 53 57 59 61 60 59 59 60 61 62 61 61 60 62 60
22 22 16 19 15 16 20 25 29 30 34 40 39 35 35 38 39 43 43 44 44 46 48 53 53 50 50 49 51 51 51 51 50 51 52 54 55 55 54 55 55 55 57 59 60 59 60 59 59
24 25 27 19 20 17 18 25 33 34 39 42 40 35 35 37 38 41 43 43 43 45 47 52 52 49 50 48 50 50 50 50 50 50 51 52 53 54 53 55 55 55 56 58 57 56 57 56 56
26 25 28 23 19 25 23 24 35 41 44 44 42 35 36 37 38 41 42 43 43 44 47 51 51 48 48 48 50 50 49 48 49 50 50 51 52 53 54 55 54 54 54 55 55 55 55 54 54

GFSSGP_sfc_dewp_003.txt.gz
Dewpoint
65 63 58 54 44 32 31 29 25 23 23 25 22 24 24 25 32 19 45 49 56 54 60 65 73 71 70 70 70 69 68 66 63 62 62 60 59 60 61 63 64 65 65 65 64 64 65 65 67
61 57 53 47 38 30 28 25 25 25 24 26 25 25 24 21 34 39 43 50 54 52 62 62 71 73 71 70 70 69 68 66 64 64 63 62 60 60 62 63 64 64 65 65 65 64 65 65 66
55 54 49 45 39 30 29 24 22 24 24 24 23 30 29 30 39 41 44 47 50 54 58 64 69 73 71 70 69 68 67 66 64 64 63 63 61 61 62 63 63 63 64 64 65 64 64 65 65
51 50 44 40 36 36 34 34 22 23 21 22 23 24 35 38 39 41 43 44 45 45 55 62 67 70 71 69 68 68 67 66 66 64 63 64 63 61 62 63 63 63 63 64 64 65 65 65 65
48 44 40 38 37 34 24 21 22 22 20 19 26 25 33 38 41 41 42 41 43 45 58 61 67 70 70 68 68 67 67 66 65 63 64 63 63 62 62 62 63 62 62 63 64 64 66 67 68
42 43 37 34 36 37 27 21 22 21 19 27 27 31 34 39 39 41 46 49 48 49 61 63 65 68 68 67 67 66 64 63 64 64 63 63 63 63 63 62 62 62 61 61 63 65 65 67 69
39 39 33 35 36 32 27 22 22 21 19 21 31 29 34 36 38 41 40 42 47 50 50 55 56 57 58 59 60 61 61 62 62 62 63 63 62 62 63 62 62 63 61 61 62 65 65 66 67
41 39 38 34 31 32 24 21 21 22 21 32 33 27 30 37 37 39 39 41 40 42 44 48 51 53 56 56 59 59 60 61 61 61 61 63 62 61 62 63 63 62 62 62 62 64 65 66 67
40 35 30 31 32 30 21 20 24 27 26 29 31 32 33 36 36 37 39 40 43 46 49 52 52 55 56 56 56 58 60 60 61 60 60 61 60 60 60 61 62 62 62 62 62 64 65 66 66
36 33 32 34 31 27 21 20 22 26 28 28 29 33 34 34 35 36 38 40 44 47 49 53 54 55 56 55 58 59 58 58 58 59 59 60 60 60 58 60 61 61 62 62 63 64 64 66 65
34 28 27 28 30 26 23 20 23 25 27 28 28 32 34 36 39 38 37 42 46 49 50 52 55 56 57 56 57 58 57 57 58 59 60 60 60 63 60 58 58 64 62 62 62 63 65 66 64
29 31 31 28 28 22 21 21 22 26 24 30 31 33 34 37 39 38 40 44 47 50 51 53 54 57 59 57 57 59 58 59 59 58 60 61 60 61 59 58 60 62 63 62 63 64 67 66 65
30 28 26 26 21 21 22 21 21 26 28 32 32 34 35 39 40 42 45 49 51 50 51 53 55 58 59 60 59 60 60 58 59 59 59 59 60 60 59 58 60 60 58 60 62 64 64 64 64
29 27 22 19 20 21 20 21 24 25 33 33 33 33 36 38 40 44 48 50 51 52 53 54 56 58 59 59 61 61 61 60 59 59 60 60 60 61 61 58 58 60 59 61 64 65 64 63 64
25 24 22 20 20 20 22 20 23 27 33 33 32 34 36 40 41 43 48 51 52 52 55 55 57 59 60 60 60 61 61 61 60 60 61 60 61 61 61 61 59 59 61 63 64 63 64 62 65
23 23 21 22 20 20 20 22 25 27 33 33 33 33 37 40 41 45 50 52 54 54 55 56 56 59 60 61 60 60 62 62 62 62 62 62 62 62 62 60 62 60 61 62 60 59 58 60 62
25 23 25 24 21 20 20 20 24 29 32 34 34 34 36 39 43 48 51 52 54 55 55 55 58 58 60 61 61 61 62 63 63 62 62 62 63 63 61 60 60 62 61 60 60 60 60 61 63
22 22 22 22 23 20 20 20 23 27 31 33 34 35 37 39 42 48 52 52 54 55 55 56 56 58 58 59 60 60 63 62 62 62 62 62 63 62 62 62 62 62 61 60 60 61 61 62 64
25 25 25 25 25 24 24 25 26 29 31 32 34 36 39 41 44 49 52 53 54 56 57 56 57 58 58 57 57 61 59 60 62 62 61 61 62 62 63 63 63 63 61 61 62 61 62 64 66
24 24 24 26 25 25 26 25 27 29 31 33 35 36 38 41 43 48 51 53 54 54 55 57 55 56 55 56 59 58 60 61 62 61 62 62 61 62 62 61 61 62 62 62 63 63 63 64 65
26 25 27 25 26 25 25 24 26 27 31 33 35 37 38 40 43 47 50 52 52 52 52 55 56 56 55 58 59 61 62 61 60 61 61 61 62 62 63 62 63 63 64 64 64 65 63 61 64
27 27 26 27 26 22 24 22 27 26 30 33 34 36 37 40 43 47 49 50 52 52 52 53 54 57 55 59 61 62 60 59 61 61 63 63 62 62 62 62 62 62 64 64 64 65 64 63 61
26 29 27 27 27 25 23 23 20 29 27 29 35 37 38 40 43 45 47 47 51 53 54 56 56 57 57 60 61 58 60 60 62 62 62 63 63 63 62 62 63 63 63 63 64 63 62 64 63
28 27 27 28 25 22 22 21 18 22 27 29 33 38 38 39 41 45 47 47 50 53 54 56 58 56 57 59 60 60 58 58 60 60 60 62 62 64 63 63 64 63 64 63 65 65 65 65 65
28 28 23 24 24 20 25 22 23 27 29 30 31 37 38 39 41 45 46 45 48 51 53 55 56 54 56 57 59 59 58 59 59 60 61 61 62 62 63 63 63 62 63 63 63 63 65 65 63
27 28 22 21 18 18 25 21 19 31 34 40 39 40 38 39 41 44 45 45 46 49 54 54 54 54 54 56 58 58 58 54 55 61 61 62 62 62 62 63 63 63 62 63 65 65 65 65 64
24 23 26 24 24 19 20 25 31 35 37 39 39 39 39 40 42 44 45 46 47 50 53 56 56 54 53 54 57 57 56 57 56 59 62 63 62 62 62 61 62 64 63 63 63 64 63 62 61
27 25 23 22 20 21 18 24 24 27 28 38 41 40 40 41 41 44 45 47 48 50 52 56 57 54 52 54 56 55 55 54 56 57 59 60 59 58 57 58 60 63 63 62 63 63 64 62 62
23 24 26 24 21 20 22 21 34 34 39 43 43 41 40 40 40 43 44 46 47 49 49 54 57 53 53 53 54 55 54 54 55 55 56 57 58 56 56 57 58 60 62 61 61 62 63 62 61
26 25 28 22 25 24 24 22 33 40 43 46 45 41 40 40 40 42 44 45 46 48 49 52 57 52 52 52 53 54 53 53 55 55 56 57 57 57 57 57 58 57 59 60 59 60 60 61 60

GFSSGP_sfc_dewp_006.txt.gz
Dewpoint
63 59 57 54 43 34 29 29 29 28 26 25 23 24 21 19 17 17 45 48 50 50 55 61 73 72 71 71 71 70 71 68 65 64 63 62 62 61 61 61 63 64 65 66 66 64 65 66 66
56 57 53 45 37 29 26 29 27 28 26 26 23 22 21 18 25 29 36 48 49 48 55 54 71 73 73 72 71 70 70 68 66 65 64 64 63 62 61 62 63 64 64 65 66 65 64 66 66
53 52 46 40 33 28 28 29 29 26 25 25 23 25 23 25 34 35 41 46 46 47 47 53 69 73 73 72 70 70 69 68 67 65 65 65 64 64 62 62 63 64 64 65 65 66 65 65 66
50 48 43 36 31 32 29 29 29 25 23 23 22 21 30 36 37 39 42 42 41 39 41 55 64 68 71 71 70 70 68 67 66 65 65 64 64 64 64 62 62 63 64 64 65 64 65 65 66
48 41 35 34 31 32 31 30 27 25 23 21 21 22 28 37 41 41 40 39 40 39 44 47 65 67 69 69 68 69 67 67 64 64 64 64 65 64 63 63 63 62 62 63 64 65 65 66 67
40 39 33 28 30 32 32 29 24 23 21 21 21 23 28 38 40 40 41 43 43 43 52 53 61 66 65 67 66 64 63 63 63 63 63 63 63 63 63 63 63 63 62 62 62 64 65 66 67
38 34 31 30 30 31 29 26 23 21 21 19 24 23 31 37 39 42 41 42 44 46 45 48 51 54 60 57 58 60 60 61 62 62 62 62 62 63 63 63 64 62 62 62 62 62 64 65 66
38 34 30 31 30 30 30 25 22 21 21 26 28 23 27 37 41 40 37 37 39 41 40 46 50 48 54 54 57 59 60 61 61 61 61 62 62 63 62 63 63 62 63 63 62 62 64 65 65
38 29 26 28 29 29 30 27 23 23 21 26 28 29 32 37 37 36 37 37 39 40 42 47 48 53 55 55 55 58 59 60 60 60 60 60 59 58 60 61 62 62 62 62 62 62 64 64 65
33 26 26 28 31 31 29 28 27 24 25 26 29 32 34 35 35 35 35 36 39 40 42 45 54 56 56 54 58 59 59 58 58 59 59 59 59 60 58 59 61 63 63 62 62 63 64 64 64
30 26 26 26 29 29 27 26 26 24 23 26 26 28 34 34 37 36 34 37 40 44 43 44 55 58 58 56 57 56 58 58 58 59 60 60 59 61 61 55 56 59 60 59 61 59 60 61 63
29 25 27 28 28 25 26 27 25 23 25 28 27 29 34 35 37 37 37 39 42 43 44 52 55 59 60 59 57 57 59 58 58 58 60 60 58 59 61 60 55 59 58 61 63 57 61 64 64
27 25 26 28 26 24 25 24 22 22 25 28 28 32 34 36 38 40 41 44 46 43 51 55 57 60 61 61 58 59 59 57 58 59 60 60 59 62 59 58 58 58 59 61 63 60 61 65 64
27 26 26 27 24 22 22 22 23 23 26 29 31 32 33 35 38 41 44 46 47 45 54 55 58 61 61 61 61 61 60 60 58 59 59 61 61 63 61 57 61 64 60 58 58 59 61 63 61
29 27 27 25 23 22 22 22 23 26 30 29 32 33 33 37 37 40 44 48 47 48 55 55 57 59 62 62 61 61 60 61 59 57 60 60 62 63 62 60 56 57 62 62 60 62 62 62 59
25 25 23 25 23 22 22 23 25 26 31 30 31 31 34 38 39 41 46 49 48 52 52 55 56 59 61 62 62 61 62 62 63 63 61 61 62 62 64 64 64 64 62 61 57 57 58 57 59
26 22 23 25 26 24 24 25 25 26 28 31 31 33 34 37 41 45 48 49 47 50 52 55 58 59 61 61 60 62 63 62 64 65 65 62 62 62 64 65 64 64 61 62 59 56 58 57 58
24 23 22 25 25 24 24 25 25 26 26 31 32 34 35 37 41 45 50 49 47 49 53 55 57 60 61 59 60 62 65 65 65 63 61 62 63 61 64 65 64 63 60 62 62 61 58 57 58
24 24 24 26 26 26 27 26 26 27 26 29 32 36 37 39 41 46 49 50 49 49 52 56 56 59 57 57 57 60 61 60 64 63 62 62 62 61 63 61 62 61 62 62 63 62 61 59 61
27 27 27 27 27 27 26 24 26 27 26 29 33 37 38 40 41 46 50 50 49 46 50 55 55 56 57 57 61 61 60 59 59 62 62 62 61 62 63 64 62 62 60 63 62 62 60 62 64
27 27 28 27 28 26 26 25 25 26 26 29 34 36 38 40 42 46 48 50 48 48 49 52 55 57 59 63 64 64 64 61 64 62 63 63 62 62 63 62 61 61 60 60 64 63 62 59 65
26 26 26 27 26 21 26 22 24 25 24 26 32 36 38 40 42 46 48 49 48 47 50 51 55 58 59 62 60 62 63 59 61 65 65 63 63 62 62 63 62 62 60 66 66 67 63 62 63
25 24 27 27 26 26 24 23 22 20 23 21 22 34 38 40 42 44 47 47 44 48 50 55 55 57 61 62 61 57 60 65 64 64 63 63 65 64 63 63 64 64 66 66 64 65 65 62 63
25 26 28 28 25 24 22 20 16 18 20 22 24 34 38 39 41 44 47 46 44 48 50 53 54 55 59 60 61 61 60 61 62 63 61 61 64 65 64 63 63 65 66 66 67 66 66 67 67
26 28 23 25 23 21 23 19 20 22 21 24 27 30 39 40 40 43 45 44 44 48 50 52 51 53 54 57 59 59 61 62 62 62 62 62 62 64 64 63 64 65 65 65 66 66 66 65 64
25 27 21 22 21 19 24 20 19 21 26 33 36 39 41 40 41 43 45 45 42 46 51 51 51 51 52 54 57 58 59 55 60 63 63 63 63 62 63 63 64 64 63 64 66 66 67 66 64
25 25 26 25 24 21 19 22 25 25 27 33 37 41 42 42 42 43 44 45 43 46 51 53 52 50 51 53 56 57 57 58 58 64 64 62 63 63 62 63 63 64 64 64 66 67 66 66 63
24 25 24 24 24 23 19 21 20 21 25 38 40 41 42 42 41 43 44 46 43 46 51 55 54 49 52 52 53 53 55 56 58 61 62 61 61 60 62 63 64 63 64 65 66 66 65 64 64
23 24 26 25 22 21 22 21 26 24 31 35 41 42 42 42 40 43 44 44 43 46 48 54 54 51 50 51 52 54 53 54 56 57 58 59 59 59 61 61 61 62 63 63 65 64 62 62 62
25 24 28 23 27 24 22 20 25 30 35 40 42 42 41 41 40 42 43 43 42 46 47 51 54 50 46 48 50 53 52 54 55 56 57 59 60 59 60 62 61 61 61 62 62 63 62 62 62

GFSSGP_sfc_dewp_009.txt.gz
Dewpoint
59 47 53 52 43 34 28 28 29 25 26 27 26 25 20 19 17 19 40 41 43 44 52 62 73 72 71 71 71 71 71 70 69 66 64 64 64 63 62 62 61 62 63 65 66 66 65 66 66
48 53 52 47 36 29 28 28 26 26 27 27 25 23 20 21 21 22 31 44 43 45 52 52 72 73 72 72 72 72 70 70 68 67 65 65 64 64 64 63 62 62 63 64 66 66 66 66 66
55 51 44 41 35 29 27 26 26 27 26 26 24 24 22 28 28 26 41 45 44 45 47 55 72 73 72 72 72 72 70 69 68 67 67 66 66 65 65 65 63 63 63 64 65 66 66 66 66
48 46 43 33 30 32 30 28 27 26 24 25 22 21 28 35 33 33 40 40 39 37 39 61 65 66 68 71 71 70 69 68 66 64 66 65 64 66 65 65 65 63 63 64 65 65 65 66 66
46 40 35 33 31 30 30 29 27 23 23 21 21 22 27 37 38 38 39 39 38 38 40 45 66 65 67 68 68 67 66 66 65 65 65 65 65 65 64 64 64 64 63 62 64 65 65 66 67
38 36 31 28 27 34 31 28 25 22 21 21 21 22 26 38 39 38 38 40 40 42 48 49 62 65 66 64 62 62 62 62 63 63 63 64 63 63 63 63 64 64 64 63 63 63 64 65 65
37 32 31 29 27 28 30 30 24 22 22 21 21 23 29 34 35 41 40 41 43 44 43 46 48 57 61 61 59 57 59 60 61 62 62 62 62 63 63 63 64 64 64 63 63 62 63 64 65
34 33 31 29 26 28 29 30 28 23 24 25 25 22 25 36 40 40 37 35 38 40 40 45 47 44 50 53 60 57 59 60 61 62 61 61 62 63 63 63 63 64 64 63 62 62 62 64 64
35 31 27 26 24 28 28 29 29 27 26 24 24 26 30 36 37 35 36 33 35 38 42 44 44 51 54 55 56 58 61 61 60 60 60 60 60 59 59 62 62 63 64 63 63 63 63 64 64
32 30 26 24 25 26 27 28 27 27 27 25 26 30 32 34 34 33 34 34 36 38 42 42 48 56 58 54 56 57 57 59 59 59 60 59 60 59 59 60 60 62 63 63 62 63 63 63 60
32 31 28 24 24 25 27 24 26 26 26 26 25 25 32 33 35 35 31 34 39 43 43 43 53 58 59 56 55 55 56 59 60 60 61 62 59 59 63 61 57 60 62 60 59 60 59 56 59
29 30 28 24 23 26 26 26 25 25 26 25 25 23 28 33 34 35 34 36 40 43 44 51 55 59 61 59 56 55 57 59 58 60 63 61 60 63 63 60 59 62 59 62 64 59 58 59 63
30 29 28 23 23 26 26 25 26 24 24 23 24 26 27 31 35 38 38 41 45 45 46 54 58 60 62 61 60 59 61 59 58 57 58 60 62 63 59 60 62 58 59 63 66 59 59 61 61
29 28 25 25 24 26 24 26 24 26 25 24 27 28 28 31 35 39 42 44 46 45 51 55 57 60 60 61 63 63 64 62 62 57 57 61 60 62 60 64 61 62 64 62 65 61 59 60 64
27 26 25 26 24 26 26 25 26 26 27 26 27 31 31 32 35 39 44 48 47 45 53 56 57 57 59 63 62 63 64 65 61 62 61 59 62 64 63 63 64 66 66 65 65 62 59 61 63
26 26 25 25 25 25 25 25 27 27 28 30 29 29 31 34 37 39 43 50 49 49 51 55 54 56 59 61 61 61 63 64 65 62 62 63 61 62 64 62 64 65 66 64 61 56 57 59 61
27 25 25 23 25 25 25 25 26 27 28 28 29 30 31 34 39 43 45 50 49 49 52 53 57 57 59 61 60 63 64 66 66 65 64 62 62 61 64 65 63 64 67 62 59 58 60 62 61
25 25 25 24 25 28 25 25 27 28 28 29 28 31 33 35 40 43 48 50 49 50 55 55 56 59 61 60 64 63 64 64 66 62 61 59 62 61 64 65 64 64 64 61 62 64 64 59 59
25 25 23 24 25 26 27 28 28 30 28 27 28 30 35 38 39 44 49 50 49 50 55 55 55 59 59 57 59 64 65 59 61 64 62 62 62 61 63 66 65 65 64 63 64 62 62 63 61
26 25 24 25 26 28 29 29 29 26 26 27 28 29 34 39 40 44 50 51 50 51 53 54 54 57 60 60 62 61 63 62 59 63 63 62 60 62 63 63 60 61 61 64 63 65 61 61 63
26 26 26 25 27 28 28 26 25 25 26 26 27 31 35 40 41 45 49 51 50 49 54 54 55 58 61 63 63 63 64 63 65 63 61 63 61 61 63 62 60 60 61 62 66 63 61 59 64
25 25 24 25 27 24 25 21 25 25 23 24 26 30 34 39 42 45 48 50 50 48 53 54 56 59 61 62 60 63 64 64 66 64 65 65 62 62 62 63 61 62 59 64 63 67 64 63 60
24 24 24 26 27 26 24 23 24 24 21 21 23 27 35 40 42 45 47 49 47 47 52 55 57 59 60 62 62 63 64 64 66 66 63 65 65 63 62 63 62 63 66 66 64 65 64 67 59
25 23 24 25 26 23 23 22 21 19 20 21 23 27 37 39 41 44 47 48 46 46 51 54 57 57 59 60 61 62 62 63 64 62 63 61 65 65 63 62 64 65 65 65 67 65 66 65 66
22 25 21 24 24 23 23 21 24 23 19 21 24 29 37 39 41 44 46 45 46 47 50 53 54 55 55 58 58 60 61 63 63 64 61 61 64 62 64 64 65 66 66 65 65 67 67 66 65
22 24 20 23 22 19 24 22 22 22 21 24 27 35 40 41 42 44 46 45 44 47 49 50 52 53 54 56 58 59 60 61 61 61 63 63 61 64 64 64 64 64 64 65 66 67 68 67 64
22 22 24 24 23 18 21 24 25 21 23 28 31 38 42 43 43 44 45 46 44 47 50 52 52 52 53 55 58 58 59 61 64 64 65 62 64 65 63 63 64 64 64 65 66 67 64 66 65
22 23 23 22 24 24 20 22 21 24 23 34 37 41 43 42 42 43 44 47 43 46 51 53 52 50 52 53 54 55 56 59 60 59 61 62 62 63 64 63 64 64 64 65 67 66 65 63 64
18 19 25 26 22 21 22 21 27 25 27 31 38 41 41 41 41 42 44 46 41 45 47 53 52 48 50 52 53 54 54 57 58 59 60 61 63 62 62 61 62 63 64 65 66 65 64 63 63
22 21 26 23 27 23 23 22 26 28 26 33 36 40 39 40 40 41 43 44 40 44 47 50 52 46 47 49 51 52 53 55 58 59 60 62 61 62 62 62 62 61 62 64 63 62 62 62 62

GFSSGP_sfc_dewp_015.txt.gz
Dewpoint
66 63 52 46 42 44 40 37 35 29 27 27 25 23 21 20 21 36 44 47 63 63 67 71 73 73 72 72 71 71 71 71 69 69 69 67 65 64 64 64 63 62 62 62 62 62 65 67 65
54 46 42 50 44 42 39 39 36 27 26 26 25 24 23 26 32 38 41 46 62 65 68 69 73 73 73 72 72 72 72 71 70 69 69 68 66 65 65 65 65 64 64 63 63 62 64 66 67
52 45 47 44 43 40 39 39 34 27 26 25 25 25 31 30 34 42 44 45 59 63 65 68 73 72 73 72 72 72 72 71 70 68 68 68 67 67 67 66 66 65 65 65 64 63 62 65 66
50 52 48 40 37 37 35 35 36 28 23 25 25 27 33 38 36 42 45 43 44 53 64 70 72 73 73 72 72 72 71 70 69 67 67 65 65 67 67 65 65 65 65 65 65 64 63 64 66
52 48 39 38 37 37 35 36 35 24 23 23 22 31 33 38 40 41 40 38 43 59 66 70 73 72 71 69 69 70 68 67 66 66 65 65 65 65 65 65 65 65 65 65 65 65 64 66 66
45 41 35 33 33 32 33 37 37 27 26 23 23 34 35 37 38 39 41 38 45 55 60 63 69 69 69 70 69 69 67 65 64 63 63 63 64 64 64 64 64 64 64 64 64 65 66 66 65
43 40 35 34 32 30 33 38 37 33 26 24 25 28 38 36 37 39 41 42 43 48 56 59 63 66 69 69 69 66 64 62 61 61 61 62 62 62 63 63 63 63 63 63 64 65 65 66 66
42 39 35 33 30 29 30 35 35 32 28 28 28 27 35 38 41 41 40 41 40 42 45 49 60 62 62 63 66 64 62 63 63 62 62 62 62 62 62 62 63 63 64 64 65 65 64 65 66
44 36 33 32 31 30 28 24 27 30 30 31 28 28 38 41 40 38 37 39 39 41 42 46 50 54 56 57 60 65 64 63 63 63 62 61 60 60 60 61 62 64 64 64 64 65 65 65 65
39 34 33 34 32 30 30 25 24 27 28 31 33 35 39 39 37 37 37 35 36 43 48 51 54 56 57 58 59 61 60 61 61 61 59 59 59 59 60 61 62 62 64 64 64 65 65 63 61
37 34 33 32 32 31 31 25 24 25 27 32 29 34 36 37 37 35 34 36 42 44 49 52 54 58 58 58 60 59 59 60 59 59 60 60 60 60 59 60 60 60 62 62 64 63 62 61 60
36 35 34 33 32 31 29 28 26 26 27 30 30 34 34 34 35 35 34 40 44 45 50 56 58 58 59 61 60 59 60 59 59 60 60 60 60 60 60 60 59 60 61 61 61 61 60 60 59
36 35 34 33 32 29 29 28 27 24 30 31 27 31 35 35 36 37 38 46 45 46 51 56 56 58 60 60 59 60 60 60 60 60 60 61 60 60 59 60 60 59 59 61 60 60 61 59 59
35 32 31 32 32 29 28 28 27 27 31 25 24 26 27 28 37 40 43 45 47 45 52 55 56 59 59 59 59 61 62 61 61 60 61 61 61 59 59 59 59 59 59 60 60 60 61 61 58
26 26 28 30 29 26 28 28 26 30 29 29 27 27 28 32 39 39 44 47 48 47 53 54 55 57 57 59 60 61 61 62 62 61 61 60 61 59 59 60 60 59 59 59 60 60 61 61 61
25 25 26 27 28 26 26 25 28 29 29 32 30 31 32 34 35 41 47 50 48 50 53 54 55 55 59 59 60 61 62 62 62 62 61 60 61 60 60 60 60 60 59 59 60 60 60 61 61
24 23 24 26 27 26 27 25 28 30 28 32 33 34 33 34 40 48 50 52 49 50 52 54 56 56 59 58 60 61 61 62 62 62 60 60 60 61 60 60 60 60 60 59 60 59 60 59 60
22 23 24 25 26 24 26 28 28 31 29 30 33 35 36 37 43 49 52 52 51 52 54 55 55 57 58 59 61 61 61 62 62 61 60 60 59 60 61 60 60 60 59 59 58 58 59 59 59
23 23 24 26 26 25 30 30 31 32 31 31 33 35 38 41 45 49 52 52 52 53 55 56 57 56 58 60 59 60 59 60 62 62 61 60 60 60 60 60 59 60 58 58 58 58 59 58 59
27 23 23 24 25 31 30 30 31 33 31 31 32 34 37 44 45 48 52 51 51 51 53 57 55 57 59 60 61 61 61 62 61 61 62 61 61 61 61 60 60 60 59 59 58 58 57 57 59
26 26 24 23 26 26 27 27 29 32 31 32 32 34 41 43 45 48 50 51 51 51 54 55 56 58 60 60 61 61 61 61 60 60 61 60 62 61 61 60 59 60 59 59 59 58 57 57 59
23 27 25 24 26 25 29 23 28 28 29 30 29 35 41 42 46 48 51 51 51 52 52 56 57 59 60 60 60 58 58 58 60 60 61 61 62 61 61 60 60 59 60 59 60 59 58 58 57
22 26 24 25 26 26 25 24 25 29 29 29 28 32 42 44 46 48 51 52 52 51 54 55 57 59 59 60 59 59 59 60 60 59 58 59 59 62 61 60 59 59 60 59 60 59 59 59 60
24 25 25 26 25 25 26 26 23 28 28 25 27 37 42 43 46 49 51 52 51 52 54 57 57 58 59 59 60 59 59 59 59 58 58 59 61 62 61 61 60 59 59 60 60 60 59 57 59
24 23 22 24 22 24 24 23 24 29 31 24 36 41 42 44 46 49 50 50 49 51 54 55 56 55 56 58 59 60 59 59 59 57 58 58 59 60 60 60 60 61 59 61 60 60 60 60 60
17 23 21 21 24 22 25 22 24 30 29 30 37 40 42 44 46 48 49 49 47 51 54 54 55 55 55 58 58 60 59 60 59 59 60 59 60 60 61 61 61 61 62 62 61 60 60 61 62
19 23 23 23 27 22 23 28 31 28 27 28 40 42 42 45 46 47 49 48 48 50 51 53 55 53 56 57 57 59 60 60 60 59 60 60 60 62 61 62 61 61 61 61 61 62 62 62 61
16 26 24 26 20 20 23 26 30 27 25 35 42 43 45 46 47 47 48 48 49 50 50 54 54 53 54 56 57 56 59 60 60 61 60 60 61 60 61 62 62 62 62 62 62 62 61 61 61
15 20 25 23 22 22 22 26 31 26 33 38 42 44 44 44 46 46 47 48 49 51 51 53 52 53 52 54 53 56 57 59 61 60 61 60 61 61 62 62 62 61 62 62 62 61 60 59 59
19 24 26 21 25 24 25 27 28 37 40 40 43 44 45 43 45 46 47 46 48 49 51 52 52 52 51 53 52 55 58 59 60 60 60 60 60 61 61 62 62 62 62 61 61 61 61 60 58

GFSSGP_sfc_dewp_021.txt.gz
Dewpoint
67 64 51 47 43 43 41 41 39 38 33 28 26 22 20 22 22 22 45 59 58 56 64 70 72 72 71 71 70 70 70 68 67 65 65 65 66 65 64 64 64 63 62 62 62 62 61 61 65
61 54 45 49 43 41 40 43 39 36 35 23 21 21 22 27 40 44 53 58 59 61 66 69 72 72 71 71 71 71 69 68 67 67 67 67 67 66 65 64 65 65 64 64 64 64 64 61 63
50 44 43 47 44 41 40 41 40 38 36 24 25 31 30 32 43 46 48 60 58 62 66 68 72 72 72 72 72 71 70 69 68 68 68 67 67 67 66 65 65 65 65 65 64 64 64 64 62
43 52 50 43 41 41 41 40 40 38 34 26 27 29 31 39 42 42 56 59 58 60 63 68 72 72 72 72 72 72 70 69 69 69 69 67 67 67 67 66 65 65 65 65 64 64 65 65 64
52 48 44 41 41 41 39 38 35 35 27 25 29 30 30 36 44 48 61 59 57 61 65 67 73 73 73 72 72 72 71 71 71 69 69 67 67 67 66 65 65 65 65 64 64 64 65 66 66
46 43 37 36 35 36 36 36 36 34 32 30 30 30 30 38 43 48 59 60 60 62 64 68 72 73 72 72 72 72 72 72 71 69 68 67 66 66 65 65 64 64 64 64 64 65 66 66 66
44 42 39 37 37 36 35 35 31 33 34 24 29 29 33 38 42 43 51 57 60 62 65 68 70 71 72 72 72 72 72 72 70 68 67 65 63 63 63 63 63 64 64 64 64 64 65 66 66
45 42 39 37 35 34 35 34 33 32 33 33 36 32 31 36 41 42 52 55 59 63 64 65 65 67 68 68 71 71 71 69 68 65 63 63 63 63 63 63 63 63 62 63 63 63 65 66 66
43 39 37 37 36 36 35 34 35 30 30 29 31 35 36 38 41 42 43 46 49 54 56 59 61 63 64 65 66 69 67 66 65 63 63 64 62 61 62 62 62 63 63 64 64 63 65 65 64
42 40 38 36 38 37 38 36 34 30 31 28 31 38 41 38 39 40 41 43 43 48 49 56 58 59 59 58 58 60 62 62 62 62 61 61 60 59 60 61 62 62 62 63 64 64 64 64 62
42 39 38 37 40 40 37 36 36 31 30 30 29 33 38 37 38 39 39 40 41 44 48 52 55 56 56 58 58 59 59 59 59 61 61 59 58 58 59 58 59 59 61 61 61 62 63 63 61
39 41 40 40 40 40 39 38 36 35 34 33 32 36 38 37 38 38 38 38 40 46 50 54 55 56 57 58 59 58 58 58 59 59 59 58 58 58 58 58 58 58 59 59 59 60 61 61 61
40 40 38 40 41 40 39 37 36 36 36 35 31 39 38 37 37 38 38 39 43 46 50 53 56 57 58 59 59 58 58 59 59 58 59 59 58 58 58 58 58 58 57 58 58 59 60 61 60
32 33 35 37 39 38 36 34 32 31 33 33 33 38 38 38 38 38 39 42 45 48 52 56 57 58 59 58 58 58 58 59 59 59 59 60 59 58 58 59 58 57 58 57 58 59 59 59 59
24 22 24 26 29 29 29 27 29 30 32 32 31 34 37 38 39 38 38 42 45 51 55 56 57 58 59 58 57 58 59 60 59 60 60 60 59 58 58 58 57 57 58 57 57 58 58 58 59
25 26 23 25 26 27 27 25 29 30 31 32 32 30 34 37 38 38 40 45 48 54 54 55 58 58 56 57 58 59 59 59 59 60 60 61 61 59 58 57 57 58 58 57 57 57 57 58 58
25 18 20 21 26 27 28 26 29 32 31 31 30 32 30 33 36 39 45 47 52 53 54 55 56 56 57 57 57 58 58 59 60 60 60 60 61 60 58 58 58 58 58 57 57 56 57 57 59
20 23 24 22 25 25 25 27 28 30 30 31 31 33 33 31 33 42 48 48 52 54 55 55 55 57 57 57 58 58 58 59 60 60 60 60 60 60 58 58 58 58 57 56 56 56 57 59 59
25 26 26 27 27 25 26 27 28 29 30 30 31 32 34 37 42 48 48 50 53 54 54 54 56 56 56 58 57 57 57 58 58 59 60 61 60 59 57 58 58 58 56 56 56 56 56 58 58
26 23 23 25 27 25 26 25 26 29 28 32 32 33 38 45 49 48 48 51 53 54 54 54 55 56 57 58 57 58 58 58 59 59 59 61 61 60 59 58 58 57 56 56 56 56 55 58 59
25 22 21 22 27 29 28 27 28 28 32 32 34 34 39 42 48 48 49 51 53 53 55 55 55 57 59 58 58 58 57 58 58 57 58 59 60 62 60 59 58 57 56 56 56 56 56 56 56
17 22 21 23 25 22 29 24 27 28 29 29 28 29 34 45 48 47 48 50 52 53 55 55 57 58 58 58 57 55 55 55 56 56 57 58 60 61 60 59 58 57 56 56 56 57 57 56 55
18 23 26 27 28 27 27 25 26 28 27 28 28 29 40 45 48 48 48 49 49 53 54 56 57 58 58 58 57 56 55 56 56 56 56 57 59 59 60 58 58 57 57 56 57 56 56 56 56
19 23 26 26 25 23 24 26 25 25 27 28 29 39 43 45 48 48 48 49 50 52 55 56 58 57 58 58 56 55 55 54 54 55 56 57 58 58 59 59 57 57 57 56 57 56 56 57 57
16 17 17 20 21 23 24 25 25 28 30 30 28 38 44 47 48 47 47 49 50 53 55 56 57 56 57 57 57 56 55 54 54 55 56 56 57 57 57 57 57 56 57 57 57 56 56 57 57
14 17 21 18 22 22 26 24 26 30 30 32 31 41 45 48 48 47 48 49 49 53 55 56 56 55 57 57 56 56 56 56 56 57 57 57 57 57 58 58 58 58 58 58 57 56 56 57 57
12 15 18 20 25 22 24 26 28 32 32 36 41 43 45 47 48 48 49 49 50 52 54 55 54 54 56 57 57 56 57 57 58 58 57 58 58 60 58 58 58 58 59 58 57 57 57 57 57
13 14 13 19 19 20 23 23 25 27 31 40 41 42 45 48 49 49 49 49 50 52 53 55 54 53 56 56 56 57 57 58 58 58 58 57 57 58 58 58 58 59 58 58 58 60 60 60 60
13 13 17 13 20 21 20 23 29 27 34 38 40 42 45 47 48 48 48 47 50 51 52 54 53 54 55 56 55 57 57 58 58 57 58 58 58 59 59 59 58 58 59 59 60 59 59 59 60
15 12 14 18 21 20 23 22 29 29 31 38 38 42 45 47 48 48 47 46 49 50 51 53 52 53 53 55 55 57 58 58 57 57 58 58 58 59 60 60 60 60 59 59 59 59 58 58 59

GFSSGP_sfc_dewp_024.txt.gz
Dewpoint
67 63 51 47 42 43 41 41 40 40 36 28 26 23 21 26 37 29 45 57 53 55 63 70 72 72 71 71 70 70 69 68 66 65 64 64 65 64 64 64 64 63 62 62 63 63 62 61 61
62 56 48 49 43 41 40 43 41 40 38 25 22 21 20 22 38 44 53 59 54 56 64 69 73 72 71 71 71 70 70 68 67 66 65 65 65 66 65 65 64 64 64 64 64 64 64 64 62
55 46 43 47 44 41 39 41 41 40 39 25 23 28 26 28 41 46 53 60 59 58 64 68 73 72 72 71 71 71 70 70 67 67 66 67 66 67 67 65 64 64 64 64 65 64 64 65 64
45 50 49 44 42 43 42 42 41 37 37 29 26 26 32 34 40 46 51 59 59 60 64 68 72 72 72 72 72 71 70 70 68 68 68 68 68 67 67 66 65 65 64 65 64 64 64 65 66
51 49 45 43 43 43 41 41 38 35 34 25 29 28 30 35 44 47 59 58 58 61 64 67 72 72 72 72 72 72 71 71 70 68 68 68 68 67 67 66 66 65 64 65 64 64 65 66 66
46 43 39 38 38 38 38 39 36 34 33 28 28 31 29 38 43 52 59 57 57 60 64 67 71 72 72 72 72 72 72 71 71 70 70 69 68 67 66 66 65 65 65 64 64 65 66 67 67
44 42 39 37 37 36 37 37 34 33 33 30 30 28 29 36 41 55 59 59 59 61 64 66 69 71 72 73 72 72 72 72 72 72 71 69 66 65 64 64 64 63 64 64 65 65 65 66 66
44 41 39 38 35 33 35 35 33 34 32 35 35 27 27 34 43 50 56 57 60 61 63 65 68 70 69 70 73 72 72 72 72 70 68 67 64 63 63 64 64 63 63 63 63 63 64 66 66
43 39 36 36 36 35 35 34 35 34 32 30 31 32 35 42 43 48 50 52 55 59 62 64 65 67 67 67 69 72 70 69 68 67 66 65 62 62 63 64 63 62 62 63 64 64 64 65 65
42 39 38 35 37 36 37 38 39 35 36 35 32 33 40 40 40 43 47 50 51 55 56 61 62 64 64 64 64 64 64 63 63 63 62 63 62 62 62 63 63 62 62 62 63 64 64 63 64
42 39 39 37 37 40 40 39 41 37 35 37 35 36 37 39 40 41 43 46 48 51 54 57 60 61 60 58 58 59 60 61 61 61 62 61 60 60 60 61 60 61 61 62 62 62 63 63 63
40 42 40 38 38 40 40 41 40 40 38 39 38 39 37 38 39 39 41 44 43 45 50 54 57 57 57 57 58 58 59 59 58 59 61 60 59 59 59 59 59 59 60 60 60 61 62 63 63
39 39 39 40 39 39 40 40 40 39 40 40 38 35 37 38 38 39 40 41 41 43 48 53 55 56 57 58 59 58 58 59 59 59 59 59 59 58 59 59 59 59 59 59 59 60 61 62 62
36 38 35 36 36 35 37 35 37 36 37 33 32 34 37 39 38 38 40 40 41 44 50 54 55 56 57 58 58 58 58 59 59 59 59 60 59 59 59 59 59 59 59 59 59 59 61 61 61
24 23 24 24 24 26 28 27 28 29 32 32 32 32 34 39 39 38 38 40 42 47 52 55 56 57 58 58 58 58 58 59 59 60 60 60 60 59 59 59 59 59 59 59 59 59 60 60 60
25 24 21 22 25 25 26 22 26 29 32 32 33 33 33 37 40 39 39 41 48 53 53 56 57 58 58 58 57 58 59 59 60 60 61 61 61 60 59 59 59 59 59 59 59 59 59 59 60
25 17 16 17 17 24 27 23 26 31 31 30 30 32 33 34 39 41 41 46 53 53 55 56 58 58 57 57 57 58 59 59 60 61 61 61 61 61 59 59 59 59 59 59 58 57 59 58 59
20 19 22 15 20 23 23 25 26 28 30 31 32 33 35 36 34 39 46 50 53 54 55 56 57 57 57 57 57 58 59 59 60 61 61 61 61 61 59 59 59 59 59 58 58 58 59 59 60
19 16 19 19 25 25 25 26 27 28 29 29 30 31 33 36 40 44 48 52 53 55 55 55 56 57 56 57 57 58 58 59 59 60 61 61 61 61 59 59 59 59 59 58 58 58 58 59 60
23 21 23 23 27 26 26 26 28 28 28 29 30 30 34 39 46 48 49 51 53 54 55 55 56 56 56 58 58 59 59 59 59 60 60 61 61 61 59 58 59 59 58 57 57 58 58 59 59
25 24 22 22 26 26 25 22 24 27 31 31 34 35 36 39 45 47 50 52 53 54 54 55 56 56 58 58 58 58 57 58 58 58 59 60 61 61 61 60 59 59 58 57 57 58 58 58 59
22 28 27 27 26 21 26 24 24 26 29 30 29 30 31 41 48 48 51 52 53 53 55 55 56 58 58 58 57 56 56 55 57 58 58 59 59 61 61 60 59 58 58 57 57 58 59 59 57
23 26 27 26 24 25 26 25 27 28 27 28 29 29 31 45 48 48 50 52 52 55 54 56 57 58 58 58 57 56 55 57 57 57 57 58 59 61 60 60 59 58 58 58 58 58 58 59 59
24 22 23 26 25 21 21 25 21 27 27 28 30 33 43 47 48 48 50 51 52 54 55 56 57 57 58 58 57 56 55 55 55 56 57 58 59 60 60 59 59 58 58 58 59 59 58 59 59
18 17 16 16 17 19 23 23 21 29 30 29 29 31 44 48 47 48 48 49 52 54 55 56 57 57 57 58 57 56 56 56 56 57 58 57 58 59 59 59 59 59 58 58 59 58 58 59 59
17 17 16 12 19 21 23 24 26 29 29 32 32 35 46 48 47 47 48 49 51 54 55 56 56 56 57 57 57 57 57 58 57 59 59 58 59 59 59 59 59 59 59 59 59 59 59 59 60
17 18 19 17 24 22 24 26 27 29 30 32 35 43 46 48 47 47 48 49 51 54 55 55 56 55 57 57 57 57 58 58 59 59 59 59 60 60 59 59 59 59 59 59 58 58 59 59 59
14 17 16 17 15 18 22 24 23 26 26 37 41 42 45 48 47 47 48 49 51 53 55 55 55 55 56 57 57 57 58 59 59 59 59 58 59 60 60 59 60 60 59 59 59 60 60 60 60
14 14 16 14 22 19 19 23 29 27 28 35 39 42 46 48 47 47 48 49 51 53 54 55 54 54 56 56 56 57 59 58 58 59 59 59 59 60 60 59 59 59 59 60 60 60 60 60 60
12 13 16 12 14 20 22 21 29 30 29 36 37 42 46 48 48 48 48 48 50 52 52 54 54 54 55 56 56 58 59 58 57 59 59 59 59 60 60 60 60 59 59 60 59 59 59 59 59

GFSSGP_sfc_dewp_027.txt.gz
Dewpoint
64 58 50 46 42 43 40 41 41 40 37 29 30 32 30 33 38 26 50 57 57 54 61 69 73 71 71 71 70 70 69 68 67 65 64 64 64 64 64 64 63 63 62 62 63 63 62 61 60
58 51 48 49 44 40 39 43 42 41 40 39 26 24 22 24 31 38 50 57 57 56 64 65 73 72 71 71 71 71 70 69 68 66 65 65 64 65 65 65 65 64 64 63 63 64 64 64 63
50 46 44 46 46 40 37 41 41 41 39 37 27 24 25 27 37 43 53 59 56 58 63 68 73 72 72 71 71 71 71 70 68 66 66 66 66 66 67 66 65 64 63 62 62 64 65 65 64
45 49 48 43 41 43 42 41 42 40 36 33 28 26 30 34 38 43 54 59 55 56 62 67 72 72 72 72 72 71 71 70 69 67 68 67 67 69 69 67 66 65 65 64 64 66 65 64 64
51 50 43 44 43 43 43 42 42 39 37 34 27 28 31 34 41 48 55 59 56 56 60 64 72 73 72 72 72 71 71 71 70 69 68 68 69 68 68 67 66 66 66 65 64 65 66 67 67
44 46 41 37 39 40 39 39 39 37 34 32 28 29 31 36 42 47 55 59 58 59 62 65 71 73 72 72 72 72 72 71 71 71 70 70 70 68 68 67 66 66 66 65 65 65 66 66 67
42 43 34 37 34 35 36 39 35 33 33 32 29 29 33 34 39 48 55 59 59 61 62 66 67 71 72 72 72 72 72 72 72 71 71 71 70 69 66 65 64 64 64 64 64 65 66 66 65
45 42 35 36 30 27 35 35 34 34 34 33 32 31 36 37 43 52 56 56 57 60 61 64 67 67 68 68 73 73 72 72 72 71 71 71 68 66 64 65 64 64 63 64 64 64 66 66 66
44 36 31 30 32 28 35 33 36 35 37 36 35 36 36 40 44 50 55 54 55 58 61 63 63 66 67 66 68 72 71 71 71 70 70 68 62 61 62 63 64 63 63 62 63 63 64 65 65
42 37 33 33 32 31 35 36 37 37 36 36 37 39 37 40 42 43 50 49 54 56 59 61 64 66 67 66 69 68 67 65 66 66 65 64 63 64 62 62 64 63 62 62 63 63 64 64 62
41 39 37 34 36 37 36 36 37 37 35 35 37 39 42 42 43 43 43 45 48 53 57 61 65 67 67 65 66 65 64 65 65 66 66 65 63 63 62 62 61 62 61 60 60 61 60 60 61
38 40 39 37 38 38 37 38 38 39 39 39 40 42 42 41 41 41 42 44 48 51 56 60 64 67 68 64 63 61 60 61 61 63 65 65 63 64 63 61 60 62 60 62 62 60 62 62 63
40 38 39 41 40 41 40 38 38 36 37 37 40 41 40 39 40 43 44 44 47 50 53 59 63 65 65 64 61 61 61 60 61 62 62 63 62 64 63 62 61 61 60 60 60 60 61 61 63
31 37 35 37 37 37 35 33 32 31 35 33 34 34 33 35 39 42 46 48 49 51 53 58 62 64 62 62 63 62 63 61 61 61 62 64 62 63 61 62 61 61 62 60 60 59 60 61 62
27 28 29 29 30 27 25 21 21 25 27 29 30 33 35 37 38 42 46 51 51 51 53 57 61 62 62 62 63 63 61 62 61 62 64 64 64 64 64 62 63 62 64 63 61 61 61 62 63
24 25 19 21 24 23 24 17 21 25 28 31 34 34 36 38 39 41 46 51 52 52 54 57 55 60 62 63 62 61 61 62 62 62 64 64 65 65 64 63 63 62 62 62 60 60 59 60 62
25 18 20 19 21 19 24 18 20 27 29 32 32 33 34 35 41 48 46 48 52 54 57 57 59 59 61 64 62 63 63 62 63 63 63 64 64 64 64 63 62 63 61 61 61 61 59 61 62
19 20 19 18 14 18 15 20 25 28 30 32 33 34 36 38 40 44 47 49 53 55 59 60 60 62 63 62 62 62 62 62 63 63 63 64 64 64 64 63 63 63 61 61 61 62 60 61 63
20 21 20 17 19 20 22 25 28 29 30 32 33 35 38 41 42 44 47 52 55 57 59 61 61 63 61 59 60 60 60 62 62 63 64 64 64 64 64 62 62 61 60 62 62 61 60 62 63
17 16 17 18 19 24 25 25 28 30 29 29 32 34 37 40 42 48 50 53 55 57 59 60 61 62 61 61 62 63 64 63 63 63 64 64 64 64 63 62 61 62 62 62 61 61 60 62 61
19 17 17 19 25 26 27 25 25 25 30 28 30 37 39 41 43 49 51 53 55 57 59 60 61 62 62 64 63 64 63 62 62 62 62 63 62 64 64 62 61 62 63 61 61 61 61 60 62
21 22 20 21 23 22 25 22 26 25 26 28 32 37 38 38 47 50 52 54 56 57 58 60 61 62 63 64 63 63 59 58 61 61 61 62 62 62 63 63 62 62 61 62 60 61 62 62 60
21 22 23 23 26 27 24 22 23 29 26 27 26 34 39 41 48 50 52 54 55 57 58 60 61 63 63 63 63 61 60 61 61 61 62 63 64 63 62 63 63 63 61 62 61 61 61 62 62
23 24 27 27 25 23 25 23 22 20 23 24 26 33 42 47 49 51 53 54 55 56 57 59 61 62 63 63 62 61 60 60 60 61 62 62 63 63 63 61 62 63 62 61 60 61 61 61 64
25 24 21 21 21 24 23 21 23 25 25 29 30 34 44 48 49 51 52 52 55 56 57 59 61 62 62 62 61 61 61 61 61 62 61 62 62 63 63 63 63 61 62 62 62 62 62 62 64
24 25 20 19 17 17 22 17 18 28 28 28 33 36 45 48 49 50 51 53 53 56 57 58 60 61 62 61 61 61 61 61 61 62 62 62 63 62 64 63 62 62 62 61 62 61 61 62 64
21 20 21 19 25 18 17 26 30 32 33 35 34 38 45 49 50 50 51 53 54 56 58 59 60 61 61 61 61 61 62 63 63 63 64 63 64 63 63 63 62 62 62 62 62 60 62 62 64
21 22 19 18 12 11 18 25 19 29 32 34 36 41 46 49 49 49 50 52 54 56 58 59 60 60 61 61 61 61 62 62 61 63 62 63 63 63 62 63 63 62 62 62 62 61 62 62 62
16 19 20 19 16 9 11 16 34 32 35 35 39 43 47 49 48 49 49 52 53 55 56 58 58 58 59 60 60 61 61 61 61 63 62 63 64 63 62 62 62 62 62 62 62 62 61 62 61
15 20 21 14 20 15 19 16 32 36 35 37 41 44 47 48 48 48 49 50 52 54 55 57 58 56 58 59 59 61 61 60 61 62 62 63 63 62 62 61 61 61 61 61 61 60 60 60 60

GFSSGP_sfc_dewp_030.txt.gz
Dewpoint
61 49 44 45 37 33 28 36 39 38 37 35 35 34 30 30 29 29 47 54 55 51 60 69 72 72 71 71 70 70 69 69 67 65 64 64 64 63 63 63 63 63 62 62 62 62 63 62 61
42 40 45 43 32 33 31 40 38 38 37 37 37 34 30 29 28 31 42 54 54 52 61 63 72 72 71 71 71 70 70 69 67 66 66 65 65 65 65 65 65 65 64 64 63 63 64 64 64
41 44 43 42 40 34 32 38 37 36 35 34 32 29 28 31 32 33 48 55 55 54 58 64 72 72 72 72 72 71 70 70 68 67 66 66 65 65 66 66 66 65 64 64 63 63 63 65 65
40 45 42 38 34 35 38 37 38 36 34 32 31 31 29 33 34 38 51 55 53 52 56 65 72 72 72 72 72 72 71 70 69 67 67 67 66 68 69 67 67 67 65 65 64 64 65 66 64
42 40 31 33 33 34 38 38 36 35 34 32 29 31 32 35 37 41 51 53 51 52 54 60 72 73 72 72 72 72 72 71 70 69 68 68 69 69 69 68 67 67 66 66 66 65 66 66 66
38 37 32 29 29 33 34 33 33 33 33 32 29 29 31 36 38 40 48 54 50 52 57 61 72 73 72 72 72 72 72 71 71 71 70 70 70 70 69 68 67 66 66 66 66 66 67 67 67
36 33 27 27 28 30 30 32 32 31 33 32 33 31 34 36 41 43 46 52 54 53 56 61 66 71 73 72 72 72 72 72 72 71 71 71 70 70 68 67 66 65 64 65 65 65 66 66 66
36 34 31 28 28 27 30 31 31 31 32 36 34 33 35 40 43 43 45 45 52 53 54 58 65 64 67 67 73 72 72 72 72 72 72 71 70 69 67 67 65 64 64 64 64 64 65 66 66
40 34 29 27 27 28 32 30 34 36 34 33 34 36 37 40 41 43 45 45 46 48 55 56 58 61 64 63 65 72 72 72 72 70 70 70 64 61 62 64 63 64 63 63 63 63 63 64 65
40 33 30 30 30 29 29 31 30 34 35 34 31 35 37 40 41 42 42 41 45 47 51 54 60 62 63 59 64 69 65 65 64 64 66 65 63 62 61 63 63 64 63 63 63 63 63 64 61
38 34 32 32 31 32 31 33 31 32 33 35 32 34 36 37 39 40 42 42 41 44 49 53 63 64 64 61 62 64 63 62 63 66 66 65 62 61 61 60 60 63 63 60 59 59 58 57 58
36 36 36 34 33 33 34 35 33 34 35 35 33 33 34 37 38 34 34 40 42 43 48 54 59 66 67 61 62 62 60 60 60 60 65 65 62 63 63 60 60 63 59 60 60 57 60 60 60
31 34 34 34 36 36 36 35 36 34 34 34 31 30 31 33 34 34 35 39 46 45 48 54 61 66 68 67 63 62 60 57 59 59 62 63 61 62 62 62 61 63 59 58 59 57 58 59 59
29 28 29 33 35 36 35 34 33 32 33 30 27 27 27 27 30 34 38 44 48 49 51 55 61 66 67 68 67 63 62 58 59 58 60 64 63 63 61 62 62 61 61 59 63 58 58 58 58
29 29 29 30 30 31 32 30 27 27 25 25 26 29 29 30 31 38 42 47 48 51 54 57 62 65 67 67 65 62 59 60 57 58 64 64 65 64 65 63 62 63 63 65 64 61 60 58 58
26 29 25 27 27 27 28 25 26 25 24 26 29 29 29 30 33 37 40 45 51 54 55 58 57 63 66 66 63 59 59 59 58 60 62 65 65 66 66 65 63 66 64 64 63 61 58 57 61
26 24 26 26 25 23 24 24 25 24 25 29 31 32 30 30 35 41 42 47 51 54 57 58 60 61 64 65 62 62 63 60 59 61 61 63 65 65 65 65 66 66 63 64 63 60 59 62 63
24 25 26 27 27 22 21 22 25 24 25 30 31 32 31 32 35 39 45 49 51 56 59 59 59 62 64 62 62 60 59 59 60 61 61 64 64 64 65 66 65 66 63 63 63 60 61 61 64
25 26 26 26 26 25 24 24 25 28 30 31 32 33 33 34 39 42 49 51 53 57 59 60 61 64 61 60 57 57 55 58 60 61 63 63 64 64 66 67 65 64 63 62 60 64 62 63 64
22 24 25 25 25 26 25 25 28 30 31 32 32 32 33 35 39 42 51 53 56 58 59 61 62 64 62 59 59 57 58 59 60 61 63 64 63 64 65 65 64 62 60 61 62 63 64 63 65
20 21 24 23 24 25 25 25 28 30 31 31 31 32 31 30 40 45 51 55 56 58 60 61 63 64 63 63 61 63 62 61 58 60 60 62 63 63 64 63 63 61 60 61 64 64 62 62 63
20 20 20 21 21 18 23 23 30 31 32 32 31 31 29 34 40 47 52 55 56 58 59 61 63 64 63 64 62 62 56 55 58 58 61 61 63 62 63 64 63 62 63 64 64 63 62 64 62
17 19 20 22 22 24 23 23 28 31 31 31 31 31 29 38 41 48 51 54 55 57 59 61 63 62 64 64 63 60 60 58 59 60 62 64 65 63 61 62 63 63 66 64 63 61 63 62 64
15 18 22 24 23 22 25 25 27 29 32 32 32 25 27 43 47 50 52 54 55 56 58 60 61 63 63 64 64 62 62 60 59 60 63 64 66 65 63 61 63 64 65 62 60 61 62 65 64
17 23 19 22 22 23 26 26 29 33 29 31 27 26 40 46 49 51 52 52 54 56 57 58 61 62 63 63 62 62 62 62 62 62 63 63 65 64 62 63 62 64 63 61 61 62 63 63 62
19 24 17 19 22 23 27 26 27 28 30 31 27 27 41 46 49 51 51 53 53 55 57 57 59 60 61 61 61 62 63 60 61 62 63 62 65 61 63 63 63 62 62 62 63 65 64 65 65
20 20 21 24 25 19 22 26 27 27 25 24 25 27 41 47 50 51 52 53 54 56 57 58 58 58 60 60 61 62 62 63 61 63 65 67 63 61 62 62 62 61 61 62 63 65 63 65 64
20 22 22 22 24 22 19 20 22 24 24 27 34 33 39 48 49 50 52 53 54 56 58 58 57 58 59 60 60 60 61 61 62 64 63 63 64 61 61 62 62 61 61 62 63 64 63 63 62
16 20 23 25 21 22 18 16 26 27 27 33 34 37 45 48 48 50 50 52 53 55 55 56 56 58 59 59 60 60 61 61 62 64 62 63 64 61 60 60 61 61 61 62 63 63 62 61 63
17 20 25 19 24 19 16 14 31 32 35 32 33 42 46 47 48 48 49 52 52 54 54 54 56 55 57 57 58 59 61 61 63 62 61 63 62 61 59 59 60 59 60 61 61 59 59 60 61

GFSSGP_sfc_dewp_033.txt.gz
Dewpoint
63 53 50 45 34 23 26 25 32 33 34 34 35 34 32 30 28 29 46 48 46 48 66 67 72 71 71 71 70 70 69 69 67 65 64 63 63 62 62 62 62 62 61 61 61 62 62 63 62
36 39 41 40 29 26 23 28 33 34 35 36 35 35 33 30 30 31 40 50 46 49 66 62 72 71 71 71 71 71 70 69 67 66 65 65 64 64 63 64 64 64 64 63 63 62 63 64 64
49 38 39 35 34 28 30 37 34 35 34 33 32 32 30 32 33 34 47 50 47 50 62 64 72 72 72 72 71 71 71 70 68 67 67 66 66 66 66 66 66 66 66 64 64 63 63 64 66
39 39 39 38 33 30 30 33 34 33 33 32 31 28 31 35 34 36 45 48 46 47 55 68 72 72 72 72 72 71 71 70 69 68 67 67 66 67 67 66 66 66 67 66 65 65 64 64 66
37 35 31 28 26 26 31 32 34 31 30 30 29 28 31 37 37 39 46 47 46 46 51 63 72 72 72 72 72 72 71 71 71 69 68 67 68 68 68 68 68 68 67 67 66 67 66 67 67
34 33 30 25 24 26 30 30 30 28 27 29 30 29 31 36 38 39 42 49 47 47 52 58 72 72 72 72 72 72 72 72 71 71 70 70 70 70 69 69 68 68 66 66 66 66 66 66 66
33 32 28 26 25 26 29 28 27 26 27 29 30 30 32 35 41 43 44 46 50 47 51 54 68 71 73 72 72 72 72 72 72 71 71 71 70 70 69 69 68 66 65 64 64 65 65 66 66
32 32 28 27 25 24 26 28 28 28 27 34 35 32 32 38 41 41 41 42 45 49 48 53 61 66 68 67 73 73 72 72 72 71 71 71 70 70 70 69 67 66 64 64 64 64 64 65 66
35 31 29 28 27 25 25 27 29 31 31 30 30 31 34 36 37 39 40 40 42 43 49 52 52 60 64 63 66 72 72 71 72 70 71 70 64 62 64 67 67 65 65 64 64 63 63 64 65
37 35 32 31 29 28 28 27 28 29 30 32 32 33 31 34 37 37 36 35 37 41 46 50 55 59 61 58 65 69 65 65 65 65 65 66 66 63 61 65 63 64 65 64 64 64 63 63 58
37 35 34 31 30 30 29 29 29 30 31 31 32 34 33 33 35 34 33 34 33 37 41 47 63 66 62 59 59 64 64 63 64 66 69 68 63 61 60 60 62 64 65 62 62 62 62 60 56
31 33 35 34 33 32 30 31 31 32 33 33 34 35 33 32 32 31 33 32 32 33 43 47 56 67 69 61 58 61 62 62 61 62 68 67 62 64 64 60 60 66 62 64 65 61 63 64 59
27 27 28 31 33 32 32 32 32 33 35 35 34 34 33 30 30 32 32 32 34 35 39 47 59 68 70 71 61 63 64 60 61 60 62 63 61 64 62 63 62 63 61 60 60 63 62 62 61
30 29 29 28 28 29 32 32 33 35 36 35 33 32 30 28 30 33 34 36 41 46 46 50 59 69 68 69 71 68 67 61 59 58 59 64 63 66 61 62 64 64 64 61 66 66 62 60 57
30 30 31 30 29 28 29 30 31 33 33 33 31 29 28 30 31 34 35 44 44 49 53 55 63 68 71 70 70 68 62 61 57 58 62 62 65 66 66 61 62 62 69 66 66 63 65 60 57
26 30 29 30 30 28 29 29 30 31 31 31 28 27 28 32 33 35 34 40 51 55 56 57 52 62 69 71 69 65 60 60 57 58 59 64 66 66 65 64 62 63 67 67 66 64 62 61 64
28 27 28 28 28 28 29 28 29 27 29 30 30 28 30 33 35 40 35 41 51 55 56 58 61 61 67 70 67 66 67 61 58 59 59 62 64 64 66 65 65 68 68 66 66 65 65 63 62
23 24 26 26 27 27 27 27 28 27 26 29 30 29 30 34 35 38 40 42 51 54 58 62 62 66 69 66 66 60 60 60 58 58 59 62 63 64 64 64 66 68 67 66 66 65 62 61 61
22 23 24 26 27 27 28 29 30 29 27 27 28 30 34 36 37 37 41 52 53 56 61 62 62 68 66 62 59 58 57 59 57 59 61 63 63 64 66 65 67 67 66 64 65 64 62 64 64
18 20 23 26 27 27 28 27 28 29 29 29 30 33 35 36 36 35 47 53 55 59 61 62 62 66 66 62 63 58 58 55 58 58 62 62 63 66 65 66 67 66 66 65 63 64 63 64 65
17 20 23 25 27 27 27 27 29 28 29 29 29 31 34 36 36 36 49 55 57 59 61 62 64 65 66 66 63 62 61 61 58 58 60 62 63 64 65 65 65 66 66 62 65 64 62 63 63
16 18 20 23 24 22 26 22 26 26 26 28 31 33 35 35 35 34 51 55 57 58 60 63 64 65 63 65 65 66 58 55 56 59 57 61 62 62 63 65 64 64 62 66 62 66 64 64 62
15 17 21 23 23 23 21 19 22 23 24 28 32 34 36 35 32 40 50 55 56 59 60 63 64 63 64 64 64 61 60 55 57 57 61 64 65 64 62 63 63 64 67 63 64 63 64 63 64
14 15 20 23 21 20 22 21 21 23 26 29 32 34 34 32 33 45 51 55 56 58 60 62 63 63 64 63 63 64 61 59 58 59 60 64 68 66 64 61 64 65 64 64 62 63 63 65 66
16 19 15 18 18 20 20 21 25 26 28 31 33 34 30 29 44 49 53 53 56 57 59 60 61 63 63 63 62 62 62 62 62 62 65 64 66 65 66 64 64 65 64 62 64 65 64 63 66
17 19 14 17 18 16 20 22 23 31 32 33 34 31 28 42 46 50 52 54 54 57 58 58 61 61 61 61 61 61 62 59 60 63 65 65 63 66 63 62 62 63 61 60 63 67 66 66 66
17 16 19 19 19 14 18 25 30 32 30 30 30 33 32 45 49 51 52 54 55 57 58 60 60 60 60 59 60 61 61 62 61 63 66 65 64 61 61 62 62 62 62 62 64 65 62 65 64
17 17 17 18 19 18 19 23 24 25 25 28 26 26 33 46 49 50 52 54 55 56 58 59 59 59 58 58 59 59 64 61 60 64 64 63 64 59 60 62 62 61 60 62 64 65 64 64 62
14 15 18 21 18 17 20 24 28 26 28 29 26 29 33 46 48 50 51 53 54 56 56 58 56 56 57 57 58 60 63 60 60 64 62 63 63 60 60 60 61 60 61 62 64 64 62 62 64
16 18 22 20 24 20 23 23 24 27 28 31 33 33 37 47 48 49 50 52 53 55 56 55 56 55 56 56 56 58 63 58 62 62 63 63 62 59 57 61 57 58 60 62 61 60 60 60 60

GFSSGP_sfc_dewp_036.txt.gz
Dewpoint
63 55 52 44 39 28 28 26 26 34 32 32 31 31 31 30 27 32 50 49 56 64 65 68 71 71 71 70 70 70 69 69 68 67 66 64 63 62 62 62 61 61 61 60 60 60 61 62 63
41 39 47 41 32 29 21 29 37 35 37 33 32 32 30 30 30 39 44 49 54 65 67 65 71 71 71 71 71 70 70 69 69 68 67 66 64 63 62 63 63 63 63 62 62 62 62 63 64
48 38 37 34 34 29 27 36 38 38 38 31 30 32 30 31 34 41 50 50 54 65 66 65 72 71 72 71 71 71 71 70 69 68 68 67 66 65 65 65 65 65 65 65 64 64 64 64 65
47 39 36 36 35 33 33 37 38 40 33 32 31 28 31 37 36 39 45 46 48 57 64 69 71 72 72 72 72 71 71 71 70 69 69 68 67 68 68 67 66 66 66 66 66 66 66 65 67
42 35 32 29 27 27 25 30 33 34 31 29 29 28 34 36 39 39 46 47 47 48 60 70 71 72 72 72 72 71 71 71 70 70 69 69 69 69 69 68 67 67 68 67 67 67 67 67 67
35 33 30 28 27 26 26 32 29 29 28 26 27 31 32 38 39 39 42 50 46 51 59 70 72 72 72 72 72 72 71 71 71 71 70 70 70 70 70 69 69 69 68 67 67 66 67 67 66
34 30 28 26 26 26 28 33 30 27 26 29 32 30 33 38 42 46 48 50 52 51 56 70 70 71 72 72 72 72 72 71 71 71 71 71 71 70 70 70 69 69 68 67 65 65 66 67 67
34 30 28 29 28 26 26 26 29 28 26 32 34 32 35 43 43 43 41 41 46 50 49 69 70 69 70 70 72 72 72 72 72 72 71 71 71 70 70 70 71 69 68 66 64 64 64 66 67
33 28 27 28 28 27 28 27 28 30 29 30 30 31 33 34 33 34 40 37 38 41 51 56 67 69 69 67 69 73 72 72 72 72 72 71 68 65 67 68 69 69 68 66 65 64 65 65 65
34 30 29 30 30 29 29 28 29 31 31 32 34 34 34 34 35 36 36 36 37 37 40 51 57 65 68 63 66 71 70 70 70 68 68 69 67 67 65 66 70 68 68 66 66 65 65 63 61
39 34 33 32 33 32 30 31 32 31 30 32 32 34 34 35 40 38 32 33 36 39 40 49 61 65 65 62 64 69 68 68 67 67 68 69 68 68 66 64 65 66 67 64 64 64 63 62 61
28 36 35 34 34 34 32 32 32 32 32 33 35 36 35 37 39 35 33 33 34 38 50 51 62 67 66 63 64 68 67 67 66 66 69 69 69 69 67 65 66 65 64 65 66 64 64 63 64
29 27 28 32 32 32 33 31 32 32 33 33 34 36 37 38 39 39 37 39 44 48 52 54 64 66 69 70 65 66 67 66 66 68 68 69 68 67 68 67 66 66 66 66 64 64 64 64 62
30 28 28 28 27 27 27 27 29 30 32 34 35 36 36 37 37 37 44 49 53 54 57 59 66 68 69 66 71 70 70 69 67 68 68 68 68 68 67 68 67 66 67 67 66 64 64 63 62
27 29 30 29 29 29 30 29 30 30 31 32 34 35 36 37 34 36 45 55 56 55 61 64 66 70 70 70 70 74 70 69 67 66 69 68 68 68 69 68 67 66 68 67 66 66 66 65 64
26 26 26 29 30 30 30 29 31 32 31 32 32 33 35 37 35 43 42 55 57 60 62 65 55 70 71 71 70 70 70 69 69 67 68 67 69 68 69 67 66 66 68 68 66 65 64 64 64
27 25 25 26 28 27 29 29 31 32 32 34 34 32 33 34 39 49 49 50 56 62 65 65 66 69 70 72 71 70 71 67 67 68 67 68 67 67 67 66 67 68 67 66 66 65 65 64 63
25 24 25 26 27 27 27 28 30 32 31 33 34 32 33 34 38 45 50 51 62 61 64 68 68 70 71 70 71 69 68 67 68 67 66 67 68 67 66 66 68 68 67 66 65 64 65 64 61
24 25 24 26 26 27 28 29 29 32 32 32 35 35 36 37 39 44 50 60 60 62 66 69 69 71 69 68 66 65 63 66 65 66 66 66 66 66 67 66 67 66 66 65 64 64 63 62 63
16 20 22 24 23 24 26 27 30 32 32 32 34 34 36 37 42 45 52 60 62 64 67 68 68 71 69 68 68 65 65 63 64 65 67 66 66 67 66 67 66 66 66 64 64 64 62 62 64
16 17 20 20 21 22 23 25 30 30 32 32 33 35 37 38 37 39 50 60 61 63 65 66 68 69 69 68 68 70 68 68 66 65 65 66 65 66 67 66 66 66 66 64 63 64 62 61 63
17 14 14 17 18 19 21 21 30 31 31 32 33 34 35 36 39 43 51 60 61 62 63 65 68 68 68 70 68 68 65 63 64 65 65 67 65 65 66 66 65 65 65 64 64 64 63 63 60
17 14 15 16 18 22 19 21 25 28 27 28 31 32 34 37 40 44 56 59 59 62 63 65 67 67 68 69 67 67 67 66 65 64 65 66 67 65 64 65 65 65 66 65 64 64 63 63 62
18 16 17 17 17 19 23 22 22 24 28 27 30 31 32 37 39 43 56 58 59 61 63 65 66 67 67 67 69 68 67 66 65 65 65 65 66 67 66 64 65 66 66 64 65 64 64 64 64
16 23 18 17 16 18 21 21 24 28 26 27 30 32 35 39 38 52 55 56 59 60 63 64 64 65 66 66 66 66 66 66 66 65 66 65 66 65 65 65 65 66 64 65 65 64 64 64 64
16 21 17 16 15 15 18 20 22 28 27 30 33 35 38 38 49 53 55 57 57 60 62 62 63 64 64 64 65 66 66 64 66 67 66 66 66 66 65 65 65 64 64 64 64 65 64 63 64
17 15 20 21 17 13 15 21 26 27 28 31 31 36 39 47 52 53 54 57 58 60 62 62 63 63 63 64 65 65 66 66 66 67 67 66 66 65 65 64 64 63 63 64 65 64 63 63 63
18 17 17 19 18 18 15 20 20 30 31 31 34 36 39 49 51 52 54 57 58 60 62 63 63 62 62 63 63 62 65 62 64 66 66 66 66 63 64 64 64 63 63 64 64 64 64 63 63
16 15 17 22 17 17 18 18 29 35 33 31 34 34 39 48 50 52 53 56 57 59 59 62 61 61 61 62 63 64 64 62 65 66 65 65 66 63 63 63 63 62 62 63 64 63 63 62 62
18 17 20 18 23 20 18 19 32 30 28 32 33 31 43 48 50 51 53 55 56 57 59 60 60 58 59 60 60 63 62 64 65 65 65 65 64 62 61 61 60 62 62 63 63 62 62 61 62

GFSSGP_sfc_dewp_042.txt.gz
Dewpoint
64 59 53 46 36 37 32 31 33 31 37 39 38 33 30 34 37 38 50 59 61 62 69 70 72 71 71 71 70 70 69 68 68 66 65 63 63 62 62 62 62 61 61 61 60 60 60 60 61
51 49 47 45 35 33 30 28 26 39 41 40 38 38 37 41 45 50 55 62 60 63 67 68 72 71 71 71 71 70 69 69 68 67 66 64 64 63 63 63 63 62 62 62 62 62 61 61 62
51 38 35 38 36 28 29 33 39 43 43 42 41 38 36 43 50 49 56 62 62 62 66 67 72 71 71 71 71 70 70 69 68 67 66 66 65 66 65 64 64 64 64 64 64 64 64 63 63
45 46 41 34 34 36 34 35 38 39 41 44 41 35 37 44 48 49 62 62 60 62 64 69 72 72 72 71 71 70 70 70 69 68 68 67 66 67 68 65 65 65 65 66 66 66 66 66 65
46 41 33 32 32 34 35 36 35 39 41 40 39 37 37 45 50 62 63 61 59 61 62 67 72 72 72 71 71 71 71 70 70 69 69 68 68 68 67 66 66 66 66 67 67 67 67 67 68
38 37 32 30 30 31 32 32 37 40 42 41 41 38 37 42 53 61 63 62 61 60 59 64 71 71 71 71 71 71 70 70 70 70 70 70 70 69 68 67 67 67 68 68 68 67 68 68 67
44 37 31 30 29 29 30 31 31 33 37 32 34 35 40 41 44 56 61 62 62 61 59 62 66 70 72 71 71 71 70 70 70 70 70 70 70 70 70 69 68 68 69 69 68 69 68 68 67
46 41 34 30 28 28 30 30 30 31 32 34 35 34 36 40 43 46 51 56 62 62 60 63 64 66 68 69 72 71 71 71 70 70 71 71 71 71 70 70 70 69 70 70 70 69 68 68 68
47 41 34 31 29 28 28 31 32 34 33 34 35 34 36 41 44 43 43 43 50 59 62 65 65 63 66 67 69 71 71 71 71 70 71 70 69 68 69 70 70 70 70 70 70 70 68 68 66
46 43 41 34 31 29 29 29 31 34 34 34 36 39 38 38 42 41 40 39 40 55 63 65 66 65 65 65 66 69 68 68 68 68 68 69 68 67 69 69 70 70 71 71 70 69 68 66 63
46 43 45 43 38 33 32 32 33 34 33 34 36 35 36 37 38 38 37 34 32 35 59 65 66 66 65 63 66 68 68 68 68 68 68 68 68 67 67 66 66 68 70 68 68 67 66 64 63
38 42 44 42 41 39 37 36 35 34 35 36 36 37 38 38 37 37 37 36 34 33 55 65 65 66 66 64 65 66 67 68 68 68 68 68 67 65 64 65 64 65 66 66 64 64 64 63 62
35 37 37 36 36 39 39 37 36 35 37 36 35 34 36 37 37 39 39 37 36 35 36 62 65 65 66 64 65 66 67 67 67 68 67 67 66 64 65 64 63 64 64 64 63 63 63 63 62
28 32 34 34 32 30 29 32 32 32 33 32 32 32 32 33 36 37 39 40 38 38 40 46 64 65 65 64 64 66 66 66 66 66 66 66 65 65 65 63 62 63 63 63 63 63 63 62 62
26 25 26 26 26 27 30 28 29 30 30 30 33 33 34 35 36 38 39 40 40 44 43 43 58 64 65 64 63 66 66 66 66 65 65 65 65 65 64 63 64 63 63 63 64 62 62 62 62
27 29 25 26 27 27 28 25 29 33 32 33 32 32 32 35 36 35 38 40 41 42 41 44 57 62 64 63 63 65 66 66 65 65 66 66 66 64 64 63 63 63 63 63 62 61 61 61 60
25 26 28 29 30 28 27 26 29 32 31 31 32 33 34 34 36 38 39 39 41 43 42 48 62 63 63 64 65 65 66 66 64 65 67 66 65 64 63 63 63 62 62 62 61 61 60 59 59
23 24 26 28 31 29 27 26 28 28 28 29 29 30 30 31 34 36 39 40 42 45 46 53 63 64 66 66 66 65 63 62 62 63 65 65 64 64 63 63 63 62 62 61 61 60 60 60 59
25 25 27 29 30 29 28 28 28 29 29 30 30 30 31 33 36 39 37 41 52 56 58 61 65 66 67 65 65 62 61 61 61 62 63 64 64 64 63 63 62 62 62 61 60 60 60 60 61
21 21 23 23 21 25 28 28 28 28 28 28 29 30 31 34 38 39 40 52 55 57 61 64 65 66 66 65 64 62 61 60 60 61 61 63 64 64 63 63 62 62 62 61 61 59 60 59 60
19 18 20 22 21 18 17 17 19 21 23 24 26 32 33 33 34 37 43 53 58 60 62 64 65 66 66 65 63 62 61 61 60 60 60 62 63 63 63 62 61 62 62 61 60 60 59 56 57
17 21 19 19 18 14 16 12 16 17 17 19 22 25 27 31 35 38 41 55 58 61 62 65 66 65 65 63 62 61 59 59 59 59 61 62 63 62 63 62 62 62 61 60 59 60 58 57 55
16 21 21 21 19 17 16 15 13 20 19 21 22 28 28 27 35 37 47 55 59 61 62 65 64 64 63 62 61 60 58 58 59 61 61 61 61 62 63 63 62 61 60 60 59 59 59 58 56
11 18 19 19 19 16 16 15 14 14 15 17 28 30 28 29 31 43 55 59 60 63 64 64 63 62 62 62 61 59 59 59 59 59 59 60 60 61 61 63 61 61 60 59 59 60 58 58 57
9 10 13 13 16 15 17 16 15 21 22 20 20 24 29 31 47 57 58 59 61 63 63 62 62 61 62 61 61 60 58 59 59 59 59 59 59 60 60 61 60 59 60 60 60 59 58 58 58
7 9 13 10 15 15 17 16 15 18 17 17 18 23 28 29 53 56 58 59 61 62 62 62 62 61 61 60 60 59 59 59 60 59 60 60 60 60 59 60 60 60 61 60 60 59 59 59 59
16 7 8 12 14 13 17 18 19 17 16 17 17 26 29 40 55 57 58 60 61 62 62 62 61 61 60 60 60 59 61 59 59 60 61 60 60 61 61 60 60 60 60 60 59 59 59 60 59
20 22 10 12 12 11 15 18 18 19 19 20 22 21 40 54 55 57 58 61 61 61 62 61 61 61 60 60 59 59 59 60 61 61 60 60 61 60 60 60 59 59 60 60 59 59 60 59 59
24 22 17 13 14 13 12 15 22 20 22 23 25 29 52 54 55 56 59 60 60 61 61 61 61 61 60 59 58 58 59 60 60 61 61 60 59 60 60 60 60 59 60 60 59 59 59 58 59
28 26 25 13 9 17 14 14 21 21 22 25 31 50 52 54 55 57 59 59 60 60 61 60 60 60 59 58 59 59 60 60 60 60 60 59 59 59 60 61 60 60 60 60 59 60 60 59 60

GFSSGP_sfc_dewp_048.txt.gz
Dewpoint
65 58 51 43 28 34 27 23 34 30 33 38 36 39 41 40 39 36 50 60 59 62 70 71 72 72 71 71 71 70 70 69 69 68 67 65 65 63 63 63 62 62 62 61 61 60 60 60 60
56 48 47 43 27 29 21 29 27 28 33 43 39 36 38 37 42 47 48 60 59 65 69 70 72 72 72 71 71 70 70 69 69 68 67 66 66 64 64 63 63 63 62 62 62 61 60 60 60
47 41 41 40 33 27 20 30 31 36 38 41 39 37 39 40 49 47 53 61 62 65 69 69 72 72 72 71 71 71 70 69 68 67 66 66 66 66 65 64 63 63 62 62 63 63 62 62 62
46 43 39 34 34 35 27 32 36 34 33 41 41 35 37 46 48 50 60 61 62 65 68 69 72 71 71 71 71 71 70 69 69 67 67 66 65 67 67 65 64 63 63 64 64 64 64 64 64
45 41 33 33 32 34 35 36 34 32 35 39 39 36 38 47 53 58 60 59 60 63 66 67 72 72 72 72 71 71 70 70 69 69 68 67 67 67 66 65 64 65 65 65 65 66 66 67 67
39 38 33 27 29 31 32 33 32 33 35 40 39 35 39 44 54 59 60 59 59 61 64 65 72 72 71 72 72 71 71 70 69 69 69 68 68 68 67 65 65 65 66 66 67 67 68 68 67
37 35 33 31 31 30 30 31 30 31 33 36 39 36 37 40 51 60 60 59 57 58 61 62 68 70 72 72 72 71 71 70 70 69 69 69 69 69 68 67 67 67 67 67 67 68 69 69 68
41 39 37 33 29 29 30 30 31 33 33 36 38 36 34 38 49 61 60 60 58 57 58 59 65 67 69 69 72 72 71 71 70 70 70 70 70 69 69 69 69 67 68 68 68 69 69 69 69
44 35 33 34 30 29 31 35 32 33 35 35 37 38 39 43 48 55 56 56 60 60 56 57 60 65 67 67 69 72 71 71 71 71 70 69 67 68 67 69 69 68 68 68 69 70 70 70 68
44 37 32 35 32 30 35 38 34 33 34 34 36 39 37 40 44 46 51 53 54 58 61 56 58 63 64 64 66 68 69 68 68 68 68 68 67 67 68 68 69 68 69 69 70 71 70 69 66
46 41 38 35 35 36 37 39 38 36 35 34 37 37 38 41 42 42 45 50 52 54 59 60 58 60 62 62 63 65 68 67 68 67 67 68 67 67 68 67 67 68 69 67 69 70 70 67 65
44 45 42 39 39 44 41 42 41 39 38 38 40 39 40 39 38 38 42 43 44 45 51 58 61 60 60 61 62 63 65 66 66 67 67 67 67 66 66 66 66 66 67 68 68 67 68 67 65
40 41 44 45 44 44 43 43 42 41 41 40 40 40 40 40 39 39 39 41 40 39 40 46 62 62 62 61 61 62 62 65 65 66 67 66 66 65 65 65 65 64 65 66 67 66 66 66 65
30 37 39 38 37 38 37 37 37 37 38 36 35 35 36 35 36 36 38 38 39 41 42 42 59 63 63 62 61 61 62 64 64 65 66 66 66 65 64 64 64 63 64 65 66 65 65 65 64
26 24 25 26 27 29 33 32 33 36 35 34 33 33 33 35 35 36 38 39 40 41 43 44 52 63 64 63 62 61 62 64 64 64 66 66 65 64 64 63 63 63 64 64 65 65 64 63 63
26 24 23 26 26 27 30 28 31 34 34 33 33 33 33 36 36 37 39 41 42 43 43 45 46 61 63 63 64 63 63 65 65 65 66 66 65 64 64 63 63 63 63 63 63 63 63 63 63
25 22 24 25 28 27 27 27 32 33 31 32 32 33 33 35 36 38 39 39 40 42 43 43 47 59 63 64 64 63 64 65 65 65 66 66 66 65 64 63 63 64 63 63 63 63 63 61 62
21 23 22 24 28 28 27 27 29 31 31 32 32 32 33 33 33 36 38 39 40 42 45 46 46 54 63 63 63 63 64 64 65 65 65 65 65 65 64 64 63 63 63 62 62 62 62 62 61
23 22 25 27 28 29 27 27 29 31 31 31 31 31 32 33 35 38 39 40 42 45 46 46 48 56 62 63 62 62 63 64 64 65 65 65 65 65 65 64 63 63 62 62 62 62 61 60 60
22 21 21 23 26 24 24 22 23 26 29 31 32 32 33 33 35 36 37 40 41 43 46 50 50 60 62 63 62 62 62 62 63 64 65 66 66 65 64 64 63 63 62 62 61 62 61 61 62
19 19 21 23 24 23 23 22 24 25 25 23 24 27 32 33 34 35 34 35 38 44 47 53 57 61 63 63 61 60 60 61 60 61 63 64 65 65 64 64 63 62 62 62 61 62 61 59 60
15 21 21 22 22 19 21 17 19 20 21 22 20 19 20 28 31 31 33 35 36 39 54 60 62 63 63 62 61 61 60 59 59 60 62 62 64 64 63 63 62 62 62 62 61 61 60 59 58
14 19 20 22 20 19 18 16 16 18 17 18 19 18 19 21 24 27 29 31 34 49 58 62 63 63 63 62 61 59 59 59 59 60 60 61 62 63 63 63 63 62 62 61 61 60 59 59 58
17 16 17 19 20 17 17 16 13 13 11 12 16 18 23 25 26 28 31 36 46 58 61 62 63 62 62 62 61 60 59 59 59 59 59 60 61 62 63 63 62 62 61 61 61 60 60 59 59
12 11 13 14 15 11 18 16 12 18 20 22 21 22 23 24 24 28 31 48 55 59 61 62 62 61 62 61 61 60 59 59 59 59 59 60 60 61 61 62 62 61 61 61 60 60 60 59 59
9 8 14 10 14 10 19 16 16 21 18 18 19 22 24 24 24 26 30 47 57 60 61 62 61 60 60 60 60 59 59 59 59 59 60 60 60 60 61 61 62 61 61 61 60 60 60 60 59
14 7 8 5 11 8 16 18 19 17 16 19 23 23 22 24 26 27 36 55 59 61 61 61 61 60 59 59 58 59 59 59 59 59 60 60 60 60 61 61 60 60 61 61 60 60 60 60 60
15 14 8 8 4 8 13 15 16 19 18 15 22 23 25 28 31 34 54 59 60 61 60 61 60 59 59 58 59 59 60 60 60 60 60 60 60 60 60 60 60 60 60 60 60 60 60 60 60
18 16 18 11 11 11 11 14 20 18 22 24 23 23 25 42 53 55 58 60 61 60 60 60 59 59 58 59 59 59 59 60 60 60 60 60 60 60 60 60 60 60 60 60 60 59 60 60 60
20 21 24 18 14 11 14 12 22 20 20 22 23 26 30 53 55 57 58 60 60 60 60 59 59 58 58 58 58 59 59 59 59 60 60 60 60 60 60 60 60 60 60 60 60 59 60 59 59